This demonstration page uses our WeatherBlox Daily Observations layout. Learn more.

Left ArrowRight Arrow

41.86663, -103.66717

Hourly Observations for February 1, 2015

Temp ( °F °C ) Dew Point ( °F °C ) Humidity (%) Winds ( mph kmh ) Pressure ( in mb ) Visibility ( mi km ) Precip ( " mm )
12:53 am 00:53 Cloudy 23 -5 20 -6.7 88 88 N 9 15 30.16 1021 10 16.0934 N/A
1:29 am 01:29 Cloudy 23 -5 19 -7.2 85 85 NNW 15 24 30.3 1026 10 16.0934 N/A
1:53 am 01:53 Cloudy 24 -4.4 19 -7.2 81 81 N 14 22 30.17 1022 10 16.0934 N/A
2:53 am 02:53 Cloudy 23 -5 17 -8.3 78 78 NNW 20 31 30.2 1023 10 16.0934 N/A
3:53 am 03:53 Cloudy 21 -6.1 16 -8.9 81 81 NNW 13 20 30.23 1024 10 16.0934 N/A
4:10 am 04:10 Cloudy 21 -6 16 -9 80 80 NNW 18 30 30.36 1028 10 16.0934 N/A
4:53 am 04:53 Mostly Cloudy 20 -6.7 14 -10 78 78 N 13 20 30.25 1025 10 16.0934 N/A
5:53 am 05:53 Cloudy 17 -8.3 12 -11.1 80 80 NNW 10 17 30.28 1026 10 16.0934 N/A
6:37 am 06:37 Cloudy 17 -8.3 12 -11.1 80 80 N 16 26 30.42 1030 9 14.48406 N/A
6:53 am 06:53 Cloudy 17 -8.3 11 -11.7 77 77 N 13 20 30.32 1027 10 16.0934 N/A
7:06 am 07:06 Cloudy 16 -9 10 -12 79 79 N 13 20 30.48 1032 10 16.0934 N/A
7:16 am 07:16 Cloudy 16 -9 10 -12 79 79 N 13 20 30.48 1032 8 12.87472 N/A
7:24 am 07:24 Cloudy with Light Snow 18 -8 10 -12 73 73 N 10 17 30.45 1031 7 11.26538 N/A
7:35 am 07:35 Cloudy 17 -8.3 10 -12.2 74 74 N 12 19 30.45 1031 10 16.0934 N/A
7:53 am 07:53 Cloudy 17 -8.3 10 -12.2 74 74 N 17 28 30.36 1028 10 16.0934 N/A
8:26 am 08:26 Cloudy 16 -9 9 -13 73 73 NNW 25 41 30.5 1033 10 16.0934 N/A
8:36 am 08:36 Cloudy 18 -8 9 -13 68 68 NW 28 44 30.48 1032 10 16.0934 N/A
8:53 am 08:53 Cloudy 16 -8.9 8 -13.3 71 71 NNW 23 37 30.4 1029 10 16.0934 N/A
9:49 am 09:49 Cloudy 16 -9 9 -13 73 73 NW 23 37 30.53 1034 10 16.0934 N/A
9:53 am 09:53 Cloudy 17 -8.3 8 -13.3 68 68 NW 23 37 30.41 1030 10 16.0934 N/A
10:18 am 10:18 Cloudy 16 -8.9 7 -13.9 67 67 NNW 21 33 30.53 1034 10 16.0934 N/A
10:53 am 10:53 Cloudy 19 -7.2 9 -12.8 65 65 NNW 21 33 30.41 1030 10 16.0934 N/A
11:53 am 11:53 Mostly Cloudy 19 -7.2 8 -13.3 62 62 NNW 22 35 30.4 1029 10 16.0934 N/A
12:53 pm 12:53 Mostly Cloudy 20 -6.7 9 -12.8 62 62 N 20 31 30.38 1029 10 16.0934 N/A
1:53 pm 13:53 Sunny 21 -6.1 10 -12.2 62 62 N 10 17 30.36 1028 10 16.0934 N/A
2:53 pm 14:53 Mostly Sunny 22 -5.6 11 -11.7 63 63 ENE 6 9 30.35 1028 10 16.0934 N/A
3:53 pm 15:53 Sunny 17 -8.3 9 -12.8 70 70 E 8 13 30.35 1028 10 16.0934 N/A
4:53 pm 16:53 Cloudy 32 undefined 28 -2 87 87 ENE 5 7 29.97 1015 10 16.0934 N/A
5:53 pm 17:53 Clear 9 -12.8 7 -13.9 92 92 ESE 8 13 30.37 1029 10 16.0934 N/A
6:53 pm 18:53 Clear 9 -13 N/A N/A E 9 15 30.36 1028 10 16.0934 N/A
7:53 pm 19:53 Clear 9 -13 N/A N/A SE 7 11 30.33 1027 10 16.0934 N/A
8:53 pm 20:53 Clear 7 -14 N/A N/A ESE 7 11 30.32 1027 10 16.0934 N/A
9:53 pm 21:53 Clear 9 -13 N/A N/A E 9 15 30.28 1025 10 16.0934 N/A
10:53 pm 22:53 Clear 9 -13 N/A N/A ESE 10 17 30.25 1024 10 16.0934 N/A
11:53 pm 23:53 Mostly Clear 10 -12 N/A N/A E 10 17 30.2 1023 10 16.0934 N/A

Powered by AerisWeather